| time (UTC) | temp F | wind direction | speed MPH | gust MPH | rain 1hr in | rain 24hr in | rain mn in | humidity % | barometer mb |
| 20260506080223 | 55 | 9 | 3.0 | 5.0 | 0.08 | 0.51 | 0.41 | 93 | 1008.8 |
| 20260506073220 | 55 | 88 | 4.0 | 8.0 | 0.10 | 0.48 | 0.38 | 94 | 1009.1 |
| 20260506072220 | 55 | 94 | 3.0 | 7.0 | 0.12 | 0.46 | 0.36 | 94 | 1009.3 |
| 20260506071220 | 55 | 57 | 3.0 | 7.0 | 0.14 | 0.46 | 0.35 | 95 | 1009.4 |
| 20260506070219 | 55 | 68 | 2.0 | 4.0 | 0.14 | 0.43 | 0.33 | 95 | 1009.3 |
| 20260506062217 | 55 | 148 | 1.0 | 3.0 | 0.08 | 0.34 | 0.24 | 95 | 1009.6 |
| 20260506061218 | 55 | 128 | 1.0 | 2.0 | 0.08 | 0.31 | 0.20 | 95 | 1009.6 |
| 20260506060217 | 55 | 18 | 1.0 | 3.0 | 0.07 | 0.29 | 0.19 | 95 | 1009.6 |
| 20260506051214 | 55 | 63 | 2.0 | 6.0 | 0.06 | 0.24 | 0.13 | 96 | 1009.4 |
| 20260506050212 | 55 | 138 | 2.0 | 3.0 | 0.04 | 0.22 | 0.12 | 96 | 1009.6 |
| 20260506044211 | 55 | 274 | 0.0 | 1.0 | 0.01 | 0.19 | 0.09 | 95 | 1009.5 |
| 20260506042212 | 55 | 259 | 1.0 | 4.0 | 0.00 | 0.18 | 0.08 | 95 | 1009.1 |
| 20260506041213 | 55 | 134 | 3.0 | 7.0 | 0.00 | 0.18 | 0.08 | 95 | 1008.9 |
| 20260506040211 | 55 | 124 | 3.0 | 6.0 | 0.00 | 0.18 | 0.08 | 95 | 1008.8 |
| 20260506035213 | 55 | 110 | 3.0 | 7.0 | 0.00 | 0.18 | 0.08 | 96 | 1008.8 |
| 20260506034212 | 55 | 111 | 2.0 | 5.0 | 0.00 | 0.18 | 0.08 | 96 | 1008.7 |
| 20260506033211 | 55 | 109 | 2.0 | 4.0 | 0.00 | 0.18 | 0.08 | 96 | 1008.9 |
| 20260506032212 | 55 | 132 | 1.0 | 2.0 | 0.00 | 0.18 | 0.08 | 96 | 1009.4 |
| 20260506030210 | 55 | 140 | 1.0 | 3.0 | 0.00 | 0.18 | 0.08 | 96 | 1009.7 |
| 20260506025210 | 55 | 148 | 1.0 | 4.0 | 0.00 | 0.18 | 0.08 | 96 | 1009.7 |
| 20260506022209 | 55 | 175 | 0.0 | 0.0 | 0.00 | 0.18 | 0.08 | 96 | 1010.2 |
| 20260506021210 | 55 | 175 | 0.0 | 0.0 | 0.00 | 0.18 | 0.08 | 96 | 1010.2 |
| 20260506020209 | 54 | 175 | 0.0 | 1.0 | 0.00 | 0.18 | 0.08 | 96 | 1010.3 |
| 20260506015222 | 54 | 175 | 2.0 | 5.0 | 0.00 | 0.18 | 0.08 | 96 | 1010.0 |
| 20260506014214 | 54 | 171 | 1.0 | 5.0 | 0.00 | 0.18 | 0.08 | 96 | 1009.9 |
| 20260506013217 | 55 | 139 | 0.0 | 2.0 | 0.00 | 0.18 | 0.08 | 96 | 1009.8 |
| 20260506012213 | 55 | 169 | 0.0 | 0.0 | 0.00 | 0.18 | 0.08 | 96 | 1009.9 |
| 20260506011217 | 55 | 187 | 0.0 | 0.0 | 0.00 | 0.18 | 0.08 | 96 | 1010.2 |
| 20260506010217 | 55 | 187 | 0.0 | 0.0 | 0.00 | 0.18 | 0.08 | 96 | 1010.3 |
| 20260506005217 | 55 | 187 | 0.0 | 0.0 | 0.00 | 0.18 | 0.08 | 96 | 1010.4 |
| 20260506004215 | 55 | 187 | 0.0 | 0.0 | 0.00 | 0.18 | 0.08 | 96 | 1010.5 |
| 20260506003210 | 55 | 187 | 0.0 | 0.0 | 0.01 | 0.18 | 0.08 | 96 | 1010.6 |
| 20260506001216 | 55 | 187 | 1.0 | 3.0 | 0.03 | 0.18 | 0.08 | 96 | 1010.7 |
| 20260505235216 | 55 | 273 | 1.0 | 2.0 | 0.04 | 0.18 | 0.08 | 96 | 1010.8 |
| 20260505234212 | 55 | 222 | 0.0 | 0.0 | 0.06 | 0.18 | 0.07 | 96 | 1010.9 |
| 20260505233212 | 55 | 222 | 1.0 | 2.0 | 0.07 | 0.17 | 0.07 | 96 | 1010.9 |
| 20260505232210 | 55 | 236 | 0.0 | 0.0 | 0.06 | 0.17 | 0.06 | 96 | 1011.0 |
| 20260505231214 | 55 | 236 | 0.0 | 2.0 | 0.05 | 0.15 | 0.05 | 96 | 1011.2 |
| 20260505230208 | 55 | 236 | 0.0 | 2.0 | 0.05 | 0.15 | 0.05 | 95 | 1011.0 |
| 20260505225214 | 55 | 236 | 1.0 | 4.0 | 0.04 | 0.14 | 0.03 | 95 | 1011.0 |
| 20260505224209 | 55 | 237 | 3.0 | 6.0 | 0.02 | 0.13 | 0.02 | 95 | 1011.1 |
| 20260505223204 | 55 | 283 | 2.0 | 4.0 | 0.00 | 0.10 | 0.00 | 94 | 1011.2 |
| 20260505222205 | 55 | 171 | 1.0 | 4.0 | 0.00 | 0.10 | 0.00 | 94 | 1011.1 |
| 20260505221212 | 56 | 154 | 0.0 | 1.0 | 0.00 | 0.10 | 0.00 | 94 | 1011.1 |
| 20260505220223 | 56 | 154 | 0.0 | 2.0 | 0.00 | 0.10 | 0.00 | 94 | 1011.1 |
| 20260505215204 | 55 | 154 | 1.0 | 2.0 | 0.00 | 0.10 | 0.10 | 94 | 1011.2 |
| 20260505214208 | 56 | 154 | 1.0 | 3.0 | 0.00 | 0.10 | 0.10 | 94 | 1011.4 |
| 20260505213209 | 56 | 107 | 0.0 | 1.0 | 0.00 | 0.10 | 0.10 | 94 | 1011.5 |
| 20260505212159 | 56 | 107 | 2.0 | 4.0 | 0.00 | 0.10 | 0.10 | 93 | 1011.6 |
| 20260505211205 | 56 | 95 | 3.0 | 7.0 | 0.00 | 0.10 | 0.10 | 93 | 1011.7 |
| 20260505210212 | 56 | 92 | 2.0 | 4.0 | 0.00 | 0.10 | 0.10 | 94 | 1011.8 |
| 20260505205206 | 56 | 100 | 0.0 | 3.0 | 0.00 | 0.10 | 0.10 | 94 | 1011.8 |
| 20260505204212 | 56 | 100 | 0.0 | 0.0 | 0.00 | 0.10 | 0.10 | 94 | 1011.9 |
| 20260505203212 | 56 | 100 | 0.0 | 0.0 | 0.00 | 0.10 | 0.10 | 95 | 1011.8 |
| 20260505201214 | 56 | 159 | 1.0 | 4.0 | 0.00 | 0.10 | 0.10 | 95 | 1012.0 |
| 20260505200206 | 56 | 159 | 1.0 | 3.0 | 0.00 | 0.10 | 0.10 | 95 | 1011.9 |
| 20260505195208 | 56 | 166 | 2.0 | 4.0 | 0.00 | 0.10 | 0.10 | 95 | 1011.8 |
| 20260505194159 | 56 | 294 | 1.0 | 2.0 | 0.00 | 0.10 | 0.10 | 94 | 1011.8 |
| 20260505193159 | 56 | 294 | 0.0 | 2.0 | 0.00 | 0.10 | 0.10 | 95 | 1011.7 |
| 20260505191211 | 56 | 274 | 0.0 | 0.0 | 0.00 | 0.10 | 0.10 | 94 | 1011.7 |
| 20260505190213 | 56 | 274 | 0.0 | 0.0 | 0.00 | 0.10 | 0.10 | 94 | 1011.7 |
| 20260505184159 | 56 | 274 | 0.0 | 0.0 | 0.00 | 0.10 | 0.10 | 93 | 1011.6 |
| 20260505183159 | 56 | 274 | 0.0 | 0.0 | 0.00 | 0.10 | 0.10 | 93 | 1011.5 |
| 20260505182212 | 56 | 274 | 0.0 | 0.0 | 0.00 | 0.10 | 0.10 | 92 | 1011.5 |
| 20260505181207 | 56 | 274 | 0.0 | 2.0 | 0.00 | 0.10 | 0.10 | 92 | 1011.4 |
| 20260505180157 | 56 | 274 | 0.0 | 1.0 | 0.01 | 0.10 | 0.10 | 92 | 1011.3 |
| 20260505174211 | 56 | 271 | 0.0 | 2.0 | 0.01 | 0.09 | 0.10 | 92 | 1011.3 |
| 20260505173155 | 56 | 252 | 2.0 | 3.0 | 0.02 | 0.09 | 0.10 | 93 | 1011.3 |
| 20260505172155 | 56 | 268 | 1.0 | 3.0 | 0.02 | 0.09 | 0.10 | 93 | 1011.3 |
| 20260505171202 | 56 | 254 | 1.0 | 3.0 | 0.03 | 0.09 | 0.10 | 93 | 1011.4 |
| 20260505170159 | 56 | 288 | 1.0 | 2.0 | 0.03 | 0.09 | 0.09 | 93 | 1011.3 |
| 20260505165208 | 56 | 303 | 1.0 | 3.0 | 0.04 | 0.06 | 0.09 | 93 | 1011.3 |
| 20260505164203 | 56 | 304 | 2.0 | 5.0 | 0.05 | 0.06 | 0.09 | 93 | 1011.3 |
| 20260505162209 | 57 | 269 | 2.0 | 7.0 | 0.03 | 0.06 | 0.08 | 93 | 1011.6 |
| 20260505160155 | 57 | 236 | 4.0 | 9.0 | 0.02 | 0.06 | 0.06 | 92 | 1011.6 |
| 20260505153157 | 58 | 263 | 6.0 | 10.0 | 0.00 | 0.05 | 0.05 | 89 | 1011.6 |
| 20260505152211 | 58 | 271 | 5.0 | 10.0 | 0.00 | 0.05 | 0.05 | 88 | 1011.7 |
| 20260505150201 | 58 | 263 | 4.0 | 9.0 | 0.00 | 0.05 | 0.05 | 87 | 1011.6 |
| 20260505140150 | 59 | 207 | 3.0 | 8.0 | 0.00 | 0.05 | 0.05 | 87 | 1011.6 |
| 20260505130153 | 59 | 240 | 2.0 | 4.0 | 0.00 | 0.05 | 0.05 | 86 | 1011.9 |
| 20260505124146 | 59 | 254 | 1.0 | 5.0 | 0.00 | 0.05 | 0.05 | 85 | 1012.0 |
| 20260505123153 | 58 | 242 | 3.0 | 7.0 | 0.00 | 0.05 | 0.05 | 87 | 1011.9 |
| 20260505122146 | 58 | 255 | 3.0 | 6.0 | 0.00 | 0.05 | 0.05 | 87 | 1012.0 |
| 20260505121158 | 58 | 252 | 2.0 | 4.0 | 0.00 | 0.05 | 0.05 | 87 | 1011.9 |
| 20260505120151 | 58 | 199 | 1.0 | 3.0 | 0.00 | 0.05 | 0.05 | 85 | 1011.9 |
| 20260505115152 | 58 | 9 | 1.0 | 2.0 | 0.00 | 0.05 | 0.05 | 85 | 1011.9 |
| 20260505114142 | 58 | 97 | 1.0 | 2.0 | 0.00 | 0.05 | 0.05 | 84 | 1011.9 |
| 20260505113152 | 58 | 98 | 1.0 | 2.0 | 0.00 | 0.05 | 0.05 | 85 | 1011.9 |
| 20260505112147 | 58 | 98 | 2.0 | 4.0 | 0.00 | 0.05 | 0.05 | 85 | 1012.0 |
| 20260505111154 | 57 | 84 | 2.0 | 4.0 | 0.00 | 0.05 | 0.05 | 86 | 1012.0 |
| 20260505110145 | 57 | 105 | 2.0 | 4.0 | 0.01 | 0.05 | 0.05 | 88 | 1012.0 |
| 20260505102148 | 57 | 82 | 2.0 | 4.0 | 0.04 | 0.04 | 0.05 | 89 | 1012.1 |
| 20260505100157 | 57 | 119 | 3.0 | 7.0 | 0.04 | 0.04 | 0.04 | 88 | 1012.1 |
| 20260505095150 | 57 | 77 | 1.0 | 4.0 | 0.03 | 0.00 | 0.03 | 87 | 1012.2 |
| 20260505094144 | 57 | 89 | 1.0 | 3.0 | 0.02 | 0.00 | 0.02 | 86 | 1012.3 |
| 20260505093148 | 57 | 81 | 1.0 | 3.0 | 0.01 | 0.00 | 0.01 | 84 | 1012.4 |
| 20260505092143 | 57 | 168 | 1.0 | 2.0 | 0.01 | 0.00 | 0.01 | 82 | 1012.4 |
| 20260505091144 | 58 | 169 | 1.0 | 4.0 | 0.00 | 0.00 | 0.00 | 82 | 1012.3 |
| 20260505090146 | 57 | 165 | 0.0 | 2.0 | 0.00 | 0.00 | 0.00 | 82 | 1012.4 |
| 20260505084135 | 57 | 174 | 2.0 | 3.0 | 0.00 | 0.00 | 0.00 | 83 | 1012.4 |
| 20260505083139 | 57 | 183 | 1.0 | 3.0 | 0.00 | 0.00 | 0.00 | 81 | 1012.3 |
| 20260505081143 | 57 | 304 | 1.0 | 3.0 | 0.00 | 0.00 | 0.00 | 79 | 1012.2 |